This is the latest recevied weather packets stored in our database for station/object WX4HP-13. If no packets are shown the sender has not sent any weather packets the latest 10 day(s).
| Time | Temp. | Humidity | Pressure | Rain* | Wind** | Luminosity | Snow |
|---|---|---|---|---|---|---|---|
| 1778002497 | 23.33° C | 44% | 1013.2 hPa | 0 mm | - | - | - |
| 1778002197 | 23.33° C | 46% | 1013.4 hPa | 0 mm | - | - | - |
| 1778001898 | 23.33° C | 45% | 1013.3 hPa | 0 mm | - | - | - |
| 1778001597 | 23.33° C | 45% | 1013.3 hPa | 0 mm | - | - | - |
| 1778001295 | 23.33° C | 43% | 1013.4 hPa | 0 mm | - | - | - |
| 1778000995 | 23.33° C | 45% | 1013.5 hPa | 0 mm | - | - | - |
| 1778000695 | 23.33° C | 46% | 1013.4 hPa | 0 mm | - | - | - |
| 1778000395 | 22.78° C | 49% | 1013.5 hPa | 0 mm | - | - | - |
| 1778000096 | 23.33° C | 47% | 1013.6 hPa | 0 mm | - | - | - |
| 1777999797 | 23.33° C | 47% | 1013.5 hPa | 0 mm | - | - | - |
| 1777999495 | 22.78° C | 47% | 1013.5 hPa | 0 mm | - | - | - |
| 1777999195 | 22.78° C | 46% | 1013.5 hPa | 0 mm | - | - | - |
| 1777998895 | 23.33° C | 46% | 1013.5 hPa | 0 mm | - | - | - |
| 1777998596 | 22.78° C | 47% | 1013.5 hPa | 0 mm | - | - | - |
| 1777998295 | 22.78° C | 45% | 1013.6 hPa | 0 mm | - | - | - |
| 1777997996 | 22.78° C | 44% | 1013.7 hPa | 0 mm | - | - | - |
| 1777997948 | 22.78° C | 43% | 1013.7 hPa | 0 mm | - | - | - |
| 1777997695 | 22.78° C | 43% | 1013.7 hPa | 0 mm | - | - | - |
| 1777997397 | 22.78° C | 44% | 1013.4 hPa | 0 mm | - | - | - |
| 1777997097 | 22.78° C | 45% | 1013.2 hPa | 0 mm | - | - | - |
| 1777996796 | 22.22° C | 44% | 1013.3 hPa | 0 mm | - | - | - |
| 1777996497 | 22.22° C | 48% | 1013.4 hPa | 0 mm | - | - | - |
| 1777996196 | 22.22° C | 50% | 1013.5 hPa | 0 mm | - | - | - |
| 1777995896 | 22.22° C | 52% | 1013.4 hPa | 0 mm | - | - | - |
| 1777995597 | 22.22° C | 52% | 1013.5 hPa | 0 mm | - | - | - |
* Rain latest hour (hover to see other rain measurements)
** Current wind speed in m/s (hover to see current wind gust speed)